H-2A DEB, 38347

Orbit data source: Space-Track

H-2A DEB, 38347 is space debris in SSO originally from a launch on Thu, 17 May 2012 UTC launched from the Tanegashima Space Center (TNSTA). Debris objects in space refer to the collection of defunct objects orbiting the Earth. Examples of debris include non-operational satellites, rocket bodies, and fragments generated from explosions, collisions, or faulty payload assembly.

Loading next visibility...
Identifier
38347, 2012-025H
Orbit
SSO
Country
Flag of JPJP / JPN
Related business
Manufacturer
Kawasaki
Mission
Spacecraft
Bus & Motor
Unknown
Mass
~100 kg wet, ~100 kg dry
Launch date (UTC)
2012-05-17 (14 years ago)
Launch vehicle
Unknown
Launch site
Tanegashima Space Center (TNSTA)
Object type
Payload
Rocket body
Debris
Shape & HBR
Half Cyl, 2.0 m
Radar Cross Section
13.425 m², Large (>1 m²)

Expand to show TLE details & history
Last TLE update: 7 hours ago

TLE from 7 hours ago
0 H-2A DEB
1 38347U 12025H   26170.13010589  .00003108  00000-0  30187-3 0  9992
2 38347  98.2063 302.8336 0007441 107.1415 253.0619 14.93390583759096
Epoch: 2026-06-19T03:07Z
TLE epoch observation values (Epoch: 2026-06-19T03:07:21.148Z)
Latitude
-0.00001°
Longitude
-11.36802°
Altitude
591.917 km
Speed
7.563 km/s
True Right ascension
20h 11m 20s
True Declination
0° 00' 00"
Sunlit
Object was in full shadow at epoch
Visualization orbit readout
Latitude
Unknown
Longitude
Unknown
Altitude
Unknown
Speed
Unknown
Apparent Right ascension
Unknown
Apparent Declination
Unknown
Sunlit
N/A
Visualization observer readout
Local Sidereal Time
20:55:24
Azimuth
Unknown
Elevation
Unknown
Doppler factor
Unknown
Orbital elements
Apogee altitude
589.591 km
Perigee altitude
579.229 km
Semi-major axis
6,962.547 km
Eccentricity
0.00074
Inclination
98.2063°
RAAN
302.8336°
Arg. of periapsis
107.1415°
True anomaly
252.98035°
Mean anomaly
253.0619°
Eccentric anomaly
253.02112°
Mean motion
3.73586 °/min
Orbital period
96.36 mins
BSTAR
0.00030187
Loading maneuver chart data...
Computing Atmospheric mass density...
Loading historical data...
Loading historical data...
Loading historical data...
Loading historical data...
Loading historical data...
Loading historical data...
Loading historical data...

Documentation

Showing up to 5 results
|